DW0275 Weather Reports


time (UTC)temp
C
wind
direction
speed
KPH
gust
KPH
rain 1hr
cm
rain 24hr
cm
rain mn
cm
humidity
%
barometer
mb
20260906082331 24 129 0.0 0.0 0.00 0.00 0.00 93 1012.7
20260906081828 24 129 0.0 0.0 0.00 0.00 0.00 93 1012.6
20260906081538 24 129 0.0 0.0 0.00 0.00 0.00 93 1012.5
20260906081345 24 129 0.0 0.0 0.00 0.00 0.00 92 1012.6
20260906080822 24 129 0.0 0.0 0.00 0.00 0.00 92 1012.6
20260906080318 24 129 0.0 1.6 0.00 0.00 0.00 93 1012.6
20260906080009 24 129 0.0 1.6 0.00 0.00 0.00 93 1012.5
20260906075815 24 129 0.0 1.6 0.00 0.00 0.00 92 1012.7
20260906075332 24 129 0.0 1.6 0.00 0.00 0.00 92 1012.7
20260906074830 24 129 0.0 1.6 0.00 0.00 0.00 93 1012.5
20260906074554 24 129 0.0 1.6 0.00 0.00 0.00 93 1012.4
20260906074328 24 129 0.0 1.6 0.00 0.00 0.00 93 1012.5
20260906073824 24 129 0.0 1.6 0.00 0.00 0.00 93 1012.5
20260906073323 24 129 0.0 0.0 0.00 0.00 0.00 92 1012.5
20260906073038 24 129 0.0 0.0 0.00 0.00 0.00 92 1012.4
20260906072840 24 129 0.0 0.0 0.00 0.00 0.00 92 1012.4
20260906072337 24 129 0.0 0.0 0.00 0.00 0.00 92 1012.6
20260906071852 24 129 0.0 0.0 0.00 0.00 0.00 92 1012.6
20260906071537 24 129 0.0 0.0 0.00 0.00 0.00 92 1012.5
20260906071327 24 129 0.0 0.0 0.00 0.00 0.00 92 1012.6
20260906070826 24 129 0.0 0.0 0.00 0.00 0.00 92 1012.5
20260906070322 24 129 0.0 0.0 0.00 0.00 0.00 92 1012.6
20260906070021 24 129 0.0 0.0 0.00 0.03 0.00 92 1012.6
20260906065818 25 129 0.0 0.0 0.00 0.03 0.00 92 1012.7
20260906065316 25 129 0.0 1.6 0.00 0.03 0.00 92 1012.7
20260906064831 25 129 0.0 1.6 0.00 0.03 0.00 92 1012.8
20260906064547 24 129 0.0 1.6 0.00 0.03 0.00 92 1012.8
20260906064328 25 129 0.0 1.6 0.00 0.03 0.00 92 1012.9
20260906063823 25 350 0.0 0.0 0.00 0.03 0.00 91 1013.1
20260906063320 25 350 0.0 0.0 0.00 0.03 0.00 91 1013.3
20260906063035 24 350 0.0 0.0 0.00 0.03 0.00 91 1013.2
20260906062815 25 350 0.0 0.0 0.00 0.03 0.00 91 1013.3
20260906062332 25 350 0.0 0.0 0.00 0.03 0.00 91 1013.2
20260906061829 25 350 0.0 1.6 0.00 0.03 0.00 91 1013.2
20260906061516 24 350 0.0 4.8 0.00 0.03 0.00 91 1013.2
20260906061325 25 350 0.0 4.8 0.00 0.03 0.00 91 1013.3
20260906060819 25 350 0.0 4.8 0.00 0.03 0.00 91 1013.7
20260906060317 25 9 0.0 3.2 0.00 0.03 0.00 91 1013.7
20260906060003 24 51 0.0 0.0 0.00 0.03 0.00 91 1013.7
20260906055829 25 124 0.0 0.0 0.00 0.03 0.00 91 1013.9
20260906055326 25 124 0.0 0.0 0.00 0.03 0.00 91 1013.8
20260906054824 25 124 0.0 0.0 0.00 0.03 0.00 91 1013.8
20260906054551 25 124 0.0 1.6 0.00 0.03 0.00 91 1013.7
20260906054321 25 124 0.0 1.6 0.00 0.03 0.00 91 1013.9
20260906053839 25 124 1.6 3.2 0.00 0.03 0.00 91 1014.0
20260906053334 25 120 0.0 3.2 0.00 0.03 0.00 91 1014.1
20260906053015 24 69 0.0 3.2 0.00 0.03 0.00 91 1014.1
20260906052852 25 20 1.6 1.6 0.00 0.03 0.00 91 1014.1
20260906052327 25 360 0.0 1.6 0.00 0.03 0.00 91 1014.2
20260906051824 25 360 0.0 3.2 0.00 0.03 0.00 90 1014.4
20260906051550 24 360 0.0 6.4 0.00 0.03 0.00 90 1014.3
20260906051322 25 360 1.6 6.4 0.00 0.03 0.00 90 1014.6
20260906050821 25 11 1.6 6.4 0.00 0.03 0.00 90 1014.7
20260906050320 25 341 3.2 6.4 0.00 0.03 0.00 90 1014.7
20260906050027 24 345 0.0 4.8 0.00 0.03 0.00 90 1014.6
20260906045839 25 6 1.6 4.8 0.00 0.03 0.00 90 1014.7
20260906045334 25 349 1.6 6.4 0.00 0.03 0.00 90 1014.8
20260906044831 25 5 0.0 3.2 0.00 0.03 0.00 90 1014.8
20260906044554 24 153 0.0 1.6 0.00 0.03 0.00 90 1014.7
20260906044329 25 153 0.0 1.6 0.00 0.03 0.00 90 1014.7
20260906043827 25 153 0.0 0.0 0.00 0.03 0.00 90 1014.7
20260906043322 25 154 0.0 0.0 0.00 0.03 0.00 90 1014.6
20260906043032 24 153 0.0 0.0 0.00 0.03 0.00 90 1014.5
20260906042837 25 153 0.0 0.0 0.00 0.03 0.00 90 1014.5
20260906042353 25 153 0.0 0.0 0.00 0.03 0.00 90 1014.3
20260906041831 25 153 0.0 0.0 0.00 0.03 0.00 90 1014.5
20260906041551 24 153 0.0 0.0 0.00 0.03 0.00 90 1014.4
20260906041346 25 153 0.0 0.0 0.00 0.03 0.00 90 1014.6
20260906040822 25 154 0.0 0.0 0.00 0.03 0.00 90 1014.6
20260906040339 25 154 0.0 0.0 0.00 0.03 0.00 90 1014.6
20260906040023 24 154 0.0 0.0 0.00 0.03 0.03 90 1014.5
20260906035849 25 154 0.0 0.0 0.00 0.03 0.03 90 1014.6
20260906035346 25 164 0.0 0.0 0.00 0.03 0.03 90 1014.6
20260906034821 25 164 0.0 0.0 0.00 0.03 0.03 90 1014.5
20260906034508 24 164 0.0 0.0 0.00 0.03 0.03 89 1014.3
20260906034318 25 164 0.0 0.0 0.00 0.03 0.03 89 1014.3
20260906033834 25 164 0.0 1.6 0.00 0.03 0.03 90 1014.3
20260906033330 25 164 0.0 1.6 0.00 0.03 0.03 90 1014.2
20260906033050 25 164 0.0 1.6 0.00 0.03 0.03 90 1014.0
20260906032828 25 164 0.0 1.6 0.00 0.03 0.03 90 1014.1
20260906032326 25 160 0.0 1.6 0.00 0.03 0.03 90 1014.1
20260906031824 25 162 0.0 3.2 0.00 0.03 0.03 90 1014.1
20260906031541 25 181 0.0 3.2 0.00 0.03 0.03 90 1014.1
20260906031323 25 153 0.0 3.2 0.00 0.03 0.03 90 1014.1
20260906030821 25 150 0.0 3.2 0.00 0.03 0.03 90 1014.1
20260906030318 25 150 0.0 3.2 0.00 0.03 0.03 90 1014.3
20260906030020 25 150 0.0 4.8 0.00 0.03 0.03 90 1014.3
20260906025816 25 150 0.0 4.8 0.00 0.03 0.03 90 1014.5
20260906025314 25 150 1.6 4.8 0.00 0.03 0.03 90 1014.6
20260906024828 25 106 0.0 0.0 0.00 0.03 0.03 89 1014.6
20260906024526 25 107 0.0 0.0 0.00 0.03 0.03 89 1014.7
20260906024324 25 107 0.0 0.0 0.00 0.03 0.03 89 1014.9
20260906023820 25 356 0.0 0.0 0.00 0.03 0.03 89 1015.1
20260906023317 25 356 0.0 0.0 0.00 0.03 0.03 88 1015.2
20260906023052 25 356 0.0 0.0 0.00 0.03 0.03 88 1015.2
20260906022834 25 356 0.0 0.0 0.00 0.03 0.03 88 1015.4
20260906022351 25 356 0.0 0.0 0.00 0.03 0.03 88 1015.4
20260906021828 25 356 0.0 1.6 0.00 0.03 0.03 88 1015.5
20260906021517 25 356 0.0 1.6 0.00 0.03 0.03 88 1015.4
20260906021347 25 356 0.0 1.6 0.00 0.03 0.03 87 1015.5
20260906020823 25 359 0.0 4.8 0.00 0.03 0.03 88 1015.6
20260906020319 25 16 0.0 6.4 0.00 0.03 0.03 87 1015.7
20260906020041 25 356 0.0 6.4 0.00 0.03 0.03 87 1015.6
20260906015817 25 347 0.0 6.4 0.00 0.03 0.03 87 1015.7
20260906015334 25 353 1.6 4.8 0.00 0.03 0.03 87 1015.8
20260906014831 25 354 0.0 1.6 0.00 0.03 0.03 88 1015.8
20260906014538 24 354 0.0 3.2 0.00 0.03 0.03 88 1015.6
20260906014328 25 354 0.0 3.2 0.00 0.03 0.03 88 1015.9
20260906013826 25 299 0.0 1.6 0.00 0.03 0.03 88 1015.8
20260906013324 25 303 0.0 6.4 0.00 0.03 0.03 88 1015.7
20260906013049 24 295 0.0 6.4 0.00 0.03 0.03 88 1015.6
20260906012842 25 46 1.6 6.4 0.00 0.03 0.03 88 1015.5
20260906012319 25 5 0.0 4.8 0.00 0.03 0.03 88 1015.6
20260906011816 25 303 1.6 6.4 0.00 0.03 0.03 89 1015.7
20260906011505 24 21 0.0 6.4 0.00 0.03 0.03 89 1015.5
20260906011327 25 21 1.6 6.4 0.00 0.03 0.03 89 1015.5
20260906010826 25 12 0.0 1.6 0.00 0.03 0.03 89 1015.3
20260906010323 25 5 0.0 4.8 0.00 0.03 0.03 90 1015.2
20260906010058 24 5 0.0 4.8 0.00 0.03 0.03 90 1014.9
20260906010002 24 5 0.0 4.8 0.00 0.03 0.03 90 1015.0
20260906005840 25 5 0.0 4.8 0.00 0.03 0.03 90 1015.0
20260906005316 25 360 1.6 6.4 0.00 0.03 0.03 90 1015.0
20260906004834 25 359 3.2 6.4 0.00 0.03 0.03 91 1014.9
20260906004528 24 352 0.0 4.8 0.00 0.03 0.03 91 1014.7
20260906004333 25 352 0.0 4.8 0.00 0.03 0.03 91 1014.8
20260906003828 25 354 1.6 4.8 0.00 0.03 0.03 91 1014.8
20260906003325 25 348 1.6 4.8 0.00 0.03 0.03 91 1014.8
20260906003110 24 341 0.0 4.8 0.00 0.03 0.03 91 1014.7
20260906002824 25 2 1.6 4.8 0.00 0.03 0.03 91 1014.7
20260906002321 25 262 0.0 0.0 0.00 0.03 0.03 91 1014.5
20260906001818 25 262 0.0 0.0 0.00 0.03 0.03 91 1014.5
20260906001545 24 262 0.0 1.6 0.00 0.03 0.03 91 1014.4
20260906001338 25 262 0.0 1.6 0.00 0.03 0.03 91 1014.6
20260906000856 25 201 0.0 0.0 0.00 0.03 0.03 91 1014.6
20260906000348 25 200 0.0 0.0 0.00 0.03 0.03 91 1014.5
20260906000046 24 148 0.0 0.0 0.00 0.03 0.03 91 1014.2
20260905235823 25 148 0.0 1.6 0.00 0.03 0.03 91 1014.3
20260905235321 25 148 0.0 1.6 0.00 0.03 0.03 91 1014.4
20260905234819 25 136 0.0 1.6 0.00 0.03 0.03 91 1014.6
20260905234537 24 354 0.0 0.0 0.00 0.03 0.03 91 1014.4
20260905234317 25 354 0.0 0.0 0.00 0.03 0.03 91 1014.3
20260905233833 25 354 0.0 0.0 0.00 0.03 0.03 91 1014.4
20260905233328 25 354 0.0 0.0 0.00 0.03 0.03 91 1014.4
20260905233017 25 11 0.0 0.0 0.00 0.03 0.03 91 1014.4
20260905232826 25 27 0.0 0.0 0.00 0.03 0.03 91 1014.5
20260905232323 25 27 0.0 0.0 0.00 0.03 0.03 91 1014.4
20260905231821 25 27 0.0 0.0 0.00 0.03 0.03 91 1014.2
20260905231509 24 27 0.0 0.0 0.00 0.03 0.03 91 1014.1
20260905231319 25 27 0.0 0.0 0.00 0.03 0.03 91 1014.2
20260905230816 25 27 0.0 0.0 0.00 0.03 0.03 91 1014.2
20260905230334 25 27 0.0 0.0 0.00 0.03 0.03 90 1014.3
20260905230055 24 27 0.0 0.0 0.00 0.03 0.03 90 1014.3
20260905225831 25 27 0.0 0.0 0.00 0.08 0.03 90 1014.5
20260905225328 25 27 0.0 0.0 0.00 0.08 0.03 90 1014.6
20260905224825 25 27 0.0 1.6 0.00 0.08 0.03 90 1014.7
20260905224539 25 123 0.0 1.6 0.00 0.08 0.03 90 1014.7
20260905224342 25 117 0.0 1.6 0.00 0.08 0.03 90 1014.6
20260905223818 25 41 0.0 6.4 0.00 0.08 0.03 90 1014.5
20260905223336 25 147 0.0 6.4 0.00 0.08 0.03 89 1014.5
20260905223055 25 141 0.0 4.8 0.00 0.08 0.03 89 1014.5
20260905222855 25 169 0.0 4.8 0.00 0.08 0.03 89 1014.6
20260905222350 25 297 1.6 6.4 0.00 0.08 0.03 89 1014.6
20260905221827 26 209 1.6 6.4 0.00 0.08 0.03 89 1014.7
20260905221611 25 115 1.6 6.4 0.00 0.08 0.03 89 1014.6
20260905221325 26 300 1.6 6.4 0.00 0.08 0.03 89 1014.7
20260905220844 26 352 3.2 6.4 0.00 0.08 0.03 90 1015.0
20260905220319 27 302 0.0 0.0 0.00 0.08 0.03 90 1014.7
20260905220025 26 335 0.0 0.0 0.00 1.30 0.03 90 1014.5
20260905215816 27 117 0.0 0.0 0.00 1.30 0.03 90 1014.5
20260905215332 27 117 0.0 0.0 0.00 1.30 0.03 90 1014.5
20260905214827 27 117 0.0 0.0 0.00 1.30 0.03 89 1014.4
20260905214515 26 147 0.0 0.0 0.00 1.30 0.03 89 1014.2
20260905214325 27 289 0.0 0.0 0.00 1.30 0.03 89 1014.3
20260905213824 27 290 0.0 0.0 0.00 1.30 0.03 89 1014.2
20260905213321 27 290 0.0 0.0 0.00 1.30 0.03 88 1014.0
20260905213011 27 290 0.0 8.0 0.00 1.30 0.03 87 1013.6
20260905212838 27 290 0.0 8.0 0.00 1.30 0.03 87 1013.8
20260905212333 27 294 0.0 8.0 0.00 1.30 0.03 86 1013.7
20260905211850 28 274 1.6 6.4 0.00 1.30 0.03 85 1013.7
20260905211509 28 60 0.0 8.0 0.00 1.30 0.03 85 1013.7
20260905211345 28 20 1.6 8.0 0.00 1.30 0.03 84 1014.0
20260905210821 28 290 1.6 8.0 0.00 1.30 0.03 84 1013.9
20260905210318 28 192 0.0 1.6 0.00 1.30 0.03 84 1013.9
20260905210039 28 147 0.0 1.6 0.00 1.30 0.03 84 1013.7
20260905205815 28 147 0.0 1.6 0.00 3.68 0.03 83 1013.6
20260905205329 28 142 0.0 3.2 0.00 3.68 0.03 83 1013.7
20260905204825 28 130 0.0 8.0 0.00 3.68 0.03 83 1013.6
20260905204526 28 122 1.6 17.7 0.00 3.68 0.03 83 1013.5
20260905204321 28 137 3.2 17.7 0.00 3.68 0.03 83 1013.7
20260905203838 28 155 6.4 17.7 0.00 3.68 0.03 83 1013.2
20260905203355 29 131 4.8 12.9 0.00 3.68 0.03 83 1012.9
20260905203043 29 122 4.8 11.3 0.00 3.68 0.03 83 1012.7
20260905202852 29 114 4.8 17.7 0.00 3.68 0.03 83 1012.8
20260905202329 30 136 6.4 22.5 0.00 3.68 0.03 82 1013.0
20260905201826 30 143 14.5 22.5 0.00 3.68 0.03 81 1013.0
20260905201506 30 102 11.3 20.9 0.00 3.68 0.03 81 1013.0
20260905201323 31 182 12.9 20.9 0.00 3.68 0.03 81 1013.1
20260905200839 31 129 9.7 20.9 0.00 3.68 0.03 81 1013.3
20260905200355 31 159 11.3 20.9 0.00 3.68 0.03 81 1013.6
20260905200025 31 128 9.7 20.9 0.00 6.12 0.03 81 1013.5
20260905195832 31 113 8.0 20.9 0.00 6.12 0.03 81 1013.5
20260905195330 31 130 11.3 17.7 0.00 6.12 0.03 81 1013.5
20260905194828 31 122 12.9 17.7 0.00 6.12 0.03 81 1013.7
20260905194508 31 146 9.7 17.7 0.00 6.12 0.03 81 1013.7
20260905194346 31 151 8.0 19.3 0.00 6.12 0.03 81 1013.9
20260905193823 31 119 9.7 19.3 0.00 6.12 0.03 81 1013.9
20260905193341 31 127 9.7 14.5 0.00 6.12 0.03 81 1013.8
20260905193005 31 56 4.8 14.5 0.00 6.12 0.03 82 1013.7
20260905192837 31 131 6.4 14.5 0.00 6.12 0.03 82 1013.8
20260905192353 30 138 8.0 12.9 0.00 6.12 0.03 82 1013.7
20260905191829 30 103 3.2 9.7 0.00 6.12 0.03 83 1013.8
20260905191529 30 122 4.8 9.7 0.00 6.12 0.03 82 1013.7
20260905191327 30 95 1.6 9.7 0.00 6.12 0.03 83 1013.8
20260905190844 30 136 4.8 9.7 0.00 6.12 0.03 83 1013.8
20260905190319 29 143 3.2 9.7 0.00 6.12 0.03 84 1013.8
20260905190055 29 119 3.2 9.7 0.00 6.12 0.03 84 1013.6
20260905185838 29 131 4.8 6.4 0.00 6.12 0.03 84 1013.9
20260905185315 28 137 3.2 8.0 0.00 6.12 0.03 85 1014.1
20260905184832 28 62 1.6 8.0 0.00 6.12 0.03 85 1013.9
20260905184517 28 36 3.2 8.0 0.00 6.12 0.03 85 1013.9
20260905184343 28 61 1.6 8.0 0.00 6.12 0.03 85 1014.0
20260905183820 28 136 1.6 6.4 0.00 6.12 0.03 85 1014.1
20260905183317 28 85 3.2 6.4 0.00 6.12 0.03 85 1014.2
20260905183041 28 139 3.2 8.0 0.00 6.12 0.03 85 1014.0
20260905182816 28 66 3.2 8.0 0.00 6.12 0.03 85 1014.1
20260905182332 28 85 4.8 9.7 0.00 6.12 0.03 85 1014.1
20260905181830 28 63 4.8 9.7 0.00 6.12 0.03 85 1014.3
20260905181522 28 109 3.2 9.7 0.00 6.12 0.03 86 1014.3
20260905181326 28 108 3.2 8.0 0.00 6.12 0.03 87 1014.4
20260905180844 28 49 4.8 8.0 0.00 6.12 0.03 87 1014.7
20260905180321 28 54 3.2 12.9 0.00 6.12 0.03 88 1014.6
20260905180045 27 41 4.8 12.9 0.00 6.12 0.03 88 1014.5
20260905175818 28 37 4.8 12.9 0.00 6.12 0.03 88 1014.6
20260905175316 28 47 4.8 8.0 0.00 6.12 0.03 87 1014.6
20260905174834 28 54 3.2 12.9 0.00 6.12 0.03 87 1014.6
20260905174532 28 55 6.4 12.9 0.00 6.12 0.03 86 1014.6
20260905174331 28 44 8.0 12.9 0.00 6.12 0.03 86 1014.7
20260905173848 28 47 3.2 4.8 0.00 6.12 0.03 86 1014.7
20260905173326 28 347 0.0 8.0 0.00 6.12 0.03 87 1014.5
20260905173027 28 347 1.6 11.3 0.00 6.12 0.03 86 1014.4
20260905172823 28 36 3.2 11.3 0.00 6.12 0.03 86 1014.8
20260905172322 28 29 6.4 11.3 0.00 6.12 0.03 86 1015.0
20260905171819 29 45 0.0 1.6 0.00 6.12 0.03 86 1014.9
20260905171518 28 340 0.0 1.6 0.00 6.12 0.03 85 1014.8
20260905171317 28 31 0.0 1.6 0.00 6.12 0.03 85 1014.8
20260905170835 28 356 0.0 0.0 0.00 6.12 0.03 85 1015.0
20260905170332 28 309 0.0 3.2 0.00 6.12 0.03 85 1015.0
20260905170059 28 3 0.0 8.0 0.00 6.12 0.03 85 1014.9
20260905170002 28 3 0.0 8.0 0.00 6.12 0.03 84 1014.8
20260905165830 28 13 0.0 8.0 0.00 6.12 0.03 84 1014.9
20260905165328 28 12 3.2 8.0 0.00 6.12 0.03 83 1015.0
20260905164827 30 359 1.6 6.4 0.00 6.12 0.03 83 1015.2
20260905164545 30 1 0.0 6.4 0.00 6.12 0.03 82 1015.1
20260905164326 30 304 1.6 6.4 0.00 6.12 0.03 82 1015.2
20260905163824 31 29 0.0 8.0 0.00 6.12 0.03 81 1015.2
20260905163320 32 328 0.0 8.0 0.00 6.12 0.03 80 1015.3
20260905163029 32 34 1.6 11.3 0.00 6.12 0.03 79 1015.3
20260905162818 32 344 0.0 11.3 0.00 6.12 0.03 79 1015.4
20260905162315 33 129 6.4 11.3 0.00 6.12 0.03 77 1015.3
20260905161815 33 140 1.6 12.9 0.00 6.12 0.03 78 1015.3
20260905161512 32 154 0.0 12.9 0.00 6.12 0.03 79 1015.3
20260905161333 32 108 1.6 12.9 0.00 6.12 0.03 78 1015.4
20260905160829 32 152 4.8 11.3 0.00 6.12 0.03 78 1015.4
20260905160326 32 133 3.2 8.0 0.00 6.12 0.03 77 1015.3
20260905160053 32 95 1.6 8.0 0.00 6.12 0.03 78 1015.3
20260905155823 33 174 3.2 8.0 0.00 6.12 0.03 79 1015.5
20260905155320 32 122 1.6 8.0 0.00 6.12 0.03 81 1015.6
20260905154836 32 146 0.0 8.0 0.00 6.12 0.03 82 1015.7
20260905154510 32 312 0.0 8.0 0.00 6.12 0.03 82 1015.6
20260905154314 32 308 0.0 8.0 0.00 6.12 0.03 81 1015.8
20260905153833 32 157 1.6 6.4 0.00 6.12 0.03 81 1015.8
20260905153333 32 214 1.6 11.3 0.00 6.12 0.03 82 1015.8
20260905153056 31 134 1.6 11.3 0.00 6.12 0.03 82 1015.8
20260905152833 32 129 4.8 11.3 0.00 6.12 0.03 81 1015.9
20260905152331 31 161 0.0 0.0 0.00 6.12 0.03 83 1015.9
20260905151829 31 161 0.0 0.0 0.00 6.12 0.03 82 1015.8
20260905151545 31 161 0.0 0.0 0.00 6.12 0.03 82 1015.7
20260905151329 31 161 0.0 0.0 0.00 6.12 0.03 82 1015.8
20260905150826 32 161 0.0 0.0 0.00 6.12 0.03 82 1015.8
20260905150323 32 136 0.0 1.6 0.00 6.12 0.03 82 1015.7
20260905150031 32 134 0.0 6.4 0.00 6.12 0.03 81 1015.6
20260905145841 32 134 0.0 6.4 0.00 6.12 0.03 81 1015.9
20260905145337 32 130 1.6 6.4 0.00 6.12 0.03 81 1015.8
20260905144834 32 148 1.6 9.7 0.00 6.12 0.03 81 1015.7
20260905144532 31 146 4.8 9.7 0.00 6.12 0.03 81 1015.6
20260905144333 32 151 4.8 9.7 0.00 6.12 0.03 81 1015.7
20260905143830 32 148 3.2 6.4 0.00 6.12 0.03 81 1015.6
20260905143343 32 122 0.0 6.4 0.00 6.12 0.03 81 1015.5
20260905143101 32 143 0.0 6.4 0.00 6.12 0.03 81 1015.4
20260905143003 32 113 1.6 6.4 0.00 6.12 0.03 81 1015.4
20260905142821 32 152 3.2 6.4 0.00 6.12 0.03 81 1015.5
20260905142337 32 159 0.0 4.8 0.00 6.12 0.03 82 1015.6
20260905141836 32 356 0.0 0.0 0.00 6.12 0.03 83 1015.5
20260905141504 31 143 0.0 0.0 0.00 6.12 0.03 83 1015.4
20260905141332 31 143 0.0 0.0 0.00 6.12 0.03 83 1015.5
20260905140830 31 144 0.0 1.6 0.00 6.12 0.03 83 1015.5
20260905140326 30 144 0.0 1.6 0.00 6.12 0.03 83 1015.7
20260905140051 30 144 0.0 1.6 0.00 6.12 0.03 83 1015.5
20260905135824 31 138 0.0 3.2 0.00 6.12 0.03 83 1015.6
20260905135322 31 124 0.0 4.8 0.00 6.12 0.03 83 1015.7
20260905134817 31 119 1.6 8.0 0.00 6.12 0.03 83 1015.6
20260905134516 31 133 1.6 8.0 0.00 6.12 0.03 83 1015.6
20260905134334 32 147 1.6 4.8 0.00 6.12 0.03 82 1015.7
20260905133853 32 144 1.6 4.8 0.00 6.12 0.03 83 1015.7
20260905133328 31 173 0.0 6.4 0.00 6.12 0.03 83 1015.7
20260905133040 31 112 1.6 6.4 0.00 6.12 0.03 83 1015.6
20260905132824 31 148 3.2 6.4 0.00 6.12 0.03 83 1015.6
20260905132341 31 158 0.0 4.8 0.00 6.12 0.03 84 1015.7
20260905131837 32 137 0.0 1.6 0.00 6.12 0.03 84 1015.6
20260905131603 31 133 0.0 1.6 0.00 6.12 0.03 85 1015.5
20260905131353 31 156 0.0 1.6 0.00 6.12 0.03 86 1015.8
20260905130830 31 140 0.0 1.6 0.00 6.12 0.03 89 1015.8
20260905130346 30 140 0.0 1.6 0.00 6.12 0.03 91 1015.8
20260905130057 30 159 0.0 1.6 0.00 6.12 0.03 92 1015.6
20260905125820 30 134 0.0 0.0 0.00 6.12 0.03 93 1015.8
20260905125316 30 134 0.0 0.0 0.00 6.12 0.03 94 1015.9
20260905124831 29 134 0.0 0.0 0.00 6.12 0.03 95 1015.9
20260905124536 28 134 0.0 0.0 0.00 6.12 0.03 94 1015.8
20260905124329 28 134 0.0 0.0 0.00 6.12 0.03 95 1015.9
20260905123844 28 134 0.0 0.0 0.00 6.12 0.03 95 1015.9
20260905123336 28 134 0.0 0.0 0.00 6.12 0.03 95 1015.9
20260905123032 27 134 0.0 0.0 0.00 6.12 0.03 95 1015.9
20260905122832 27 134 0.0 0.0 0.00 6.12 0.03 95 1016.0
20260905122329 27 134 0.0 0.0 0.00 6.12 0.03 95 1015.9
20260905121826 27 133 0.0 0.0 0.00 6.12 0.03 95 1015.9
20260905121525 27 134 0.0 0.0 0.00 6.12 0.03 95 1015.7
20260905121322 27 134 0.0 1.6 0.00 6.12 0.03 95 1015.8
20260905120838 26 134 0.0 1.6 0.00 6.12 0.03 95 1015.7
20260905120353 26 134 0.0 0.0 0.00 6.12 0.03 95 1015.8
20260905120048 26 134 0.0 0.0 0.00 6.12 0.03 95 1015.6
20260905115830 26 134 0.0 0.0 0.00 6.12 0.03 95 1015.7
20260905115325 26 134 0.0 0.0 0.00 6.12 0.03 95 1015.6
20260905114823 26 134 0.0 0.0 0.00 6.12 0.03 95 1015.5
20260905114535 26 133 0.0 0.0 0.00 6.12 0.03 95 1015.4
20260905114320 26 134 0.0 0.0 0.00 6.12 0.03 95 1015.5
20260905113817 26 134 0.0 0.0 0.00 6.12 0.03 95 1015.4
20260905113315 26 134 0.0 0.0 0.00 6.12 0.03 95 1015.3
20260905113019 26 134 0.0 0.0 0.00 6.12 0.03 95 1015.1
20260905112832 26 134 0.0 0.0 0.00 6.12 0.03 95 1015.3
20260905112329 26 134 0.0 0.0 0.00 6.12 0.03 95 1015.2
20260905111846 26 134 0.0 0.0 0.00 6.12 0.03 95 1015.0
20260905111544 25 134 0.0 0.0 0.00 6.12 0.03 95 1015.0
20260905111320 26 134 0.0 0.0 0.00 6.12 0.03 95 1015.1
20260905110818 26 134 0.0 0.0 0.00 6.12 0.03 95 1015.1
20260905110317 26 134 0.0 0.0 0.00 6.12 0.03 95 1015.1
20260905110026 25 134 0.0 0.0 0.00 6.12 0.03 95 1015.0
20260905105833 26 134 0.0 0.0 0.00 6.12 0.03 95 1015.0
20260905105351 26 134 0.0 0.0 0.00 6.12 0.03 95 1015.1
20260905104827 26 134 0.0 0.0 0.00 6.12 0.03 95 1015.1
20260905104601 26 134 0.0 0.0 0.00 6.12 0.03 95 1014.9
20260905104324 26 134 0.0 0.0 0.00 6.12 0.03 95 1015.0
20260905103821 26 134 0.0 0.0 0.00 6.12 0.03 95 1015.1
20260905103317 26 134 0.0 0.0 0.00 6.12 0.03 95 1015.1
20260905103037 26 134 0.0 0.0 0.00 6.12 0.03 95 1015.0
20260905102815 26 134 0.0 0.0 0.00 6.12 0.03 95 1015.0
20260905102333 26 134 0.0 0.0 0.00 6.12 0.03 95 1015.0
20260905101829 26 134 0.0 0.0 0.00 6.12 0.03 95 1015.1
20260905101551 26 134 0.0 0.0 0.00 6.12 0.03 95 1015.0
20260905101325 26 134 0.0 0.0 0.00 6.12 0.03 95 1015.0
20260905100822 26 134 0.0 0.0 0.00 6.12 0.03 95 1015.0
20260905100318 26 134 0.0 0.0 0.00 6.12 0.03 95 1014.9
20260905100037 26 134 0.0 0.0 0.00 6.12 0.03 95 1014.9
20260905095817 26 134 0.0 0.0 0.00 6.12 0.03 95 1014.8
20260905095314 26 134 0.0 0.0 0.00 6.12 0.03 95 1014.8
20260905094832 26 134 0.0 0.0 0.00 6.12 0.03 95 1014.7
20260905094522 26 134 0.0 0.0 0.00 6.12 0.03 95 1014.6
20260905094329 26 134 0.0 0.0 0.00 6.12 0.03 95 1014.8
20260905093824 26 134 0.0 0.0 0.00 6.12 0.03 95 1014.7
20260905093322 26 134 0.0 0.0 0.00 6.12 0.03 95 1014.6
20260905093011 26 134 0.0 0.0 0.00 6.12 0.03 95 1014.6
20260905092819 26 134 0.0 0.0 0.00 6.12 0.03 95 1014.7
20260905092317 26 134 0.0 0.0 0.00 6.12 0.03 95 1014.6
20260905091832 26 134 0.0 1.6 0.00 6.12 0.03 95 1014.6
20260905091531 26 134 0.0 1.6 0.00 6.12 0.03 95 1014.5
20260905091328 26 134 0.0 1.6 0.00 6.12 0.03 95 1014.6
20260905090826 26 134 0.0 0.0 0.00 6.12 0.03 95 1014.7
20260905090323 26 134 0.0 0.0 0.00 6.12 0.03 95 1014.6
20260905090020 26 134 0.0 0.0 0.00 6.12 0.03 95 1014.5
20260905085822 26 134 0.0 0.0 0.00 6.12 0.03 95 1014.6
20260905085321 26 134 0.0 0.0 0.00 6.12 0.03 95 1014.6
20260905084817 26 134 0.0 0.0 0.00 6.12 0.03 95 1014.6
20260905084515 26 134 0.0 0.0 0.00 6.12 0.03 95 1014.6
20260905084358 26 134 0.0 0.0 0.00 6.12 0.03 95 1014.7
20260905083834 26 134 0.0 0.0 0.00 6.12 0.03 95 1014.7
20260905083329 26 134 0.0 0.0 0.00 6.12 0.03 95 1014.7
20260905083008 26 134 0.0 0.0 0.00 6.12 0.03 95 1014.7
20260905082827 26 134 0.0 0.0 0.00 6.12 0.03 95 1014.8